Regional Weather Roundup
Issued by NWS

Home | Current Version | Previous Version | Graphics & Text | Print | Product List | Glossary On
Versions: 1 2 3 4 5 6 7 8 9 10 11 12 13 14 15 16 17 18 19 20 21 22 23 24 25 26 27 28 29 30 31 32 33 34 35 36 37 38 39 40 41 42 43 44 45 46 47 48 49 50
000
ASUS43 KBIS 261110
RWRND

NORTH DAKOTA REGIONAL WEATHER ROUNDUP
NATIONAL WEATHER SERVICE BISMARCK ND
600 AM CDT MON SEP 26 2016

NOTE: "FAIR" INDICATES FEW OR NO CLOUDS BELOW 12,000 FEET WITH NO
SIGNIFICANT WEATHER AND/OR OBSTRUCTIONS TO VISIBILITY.


NDZ001>003-009>011-017-261200-
NORTHWEST NORTH DAKOTA

CITY           SKY/WX    TMP DP  RH WIND       PRES   REMARKS
WILLISTON      CLEAR     37  32  82 S5        30.20R
MINOT          CLEAR     45  34  65 W13       30.11R
MINOT AFB      CLEAR     43  34  70 W13       30.10R
$$

NDZ018>021-031>035-040>046-261200-
SOUTHWEST NORTH DAKOTA

CITY           SKY/WX    TMP DP  RH WIND       PRES   REMARKS
BISMARCK       CLEAR     41  34  76 W10       30.17R
DICKINSON      CLOUDY    40  34  79 W6        30.19S
GARRISON         N/A     41  37  86 W8        30.14S
HETTINGER ARPT CLEAR     39  36  89 W3        30.23S
$$

NDZ004>008-012>016-024-026-027-054-261200-
NORTHEAST NORTH DAKOTA

CITY           SKY/WX    TMP DP  RH WIND       PRES   REMARKS
GRAND FORKS    CLEAR     49  37  63 NW17G24   29.94R
GRND FRKS AFB  CLEAR     49  36  61 NW16G23   29.95R
DEVILS LAKE    CLEAR     46  37  71 W15       30.03R
$$

NDZ022-023-025-028>030-036>039-047>053-261200-
SOUTHEAST NORTH DAKOTA

CITY           SKY/WX    TMP DP  RH WIND       PRES   REMARKS
FARGO          CLEAR     48  36  63 W14       29.97R
JAMESTOWN      CLEAR     45  37  73 W13       30.06S
$$





USA.gov is the U.S. government's official web portal to all federal, state and local government web resources and services.